Weather History for Spirit of St Louis, MO

Change the Weather History Date:

Thursday, January 31, 2013

  Actual Average Record
Temperature  
Mean Temperature 22 °F -  
Max Temperature 33 °F 40 °F 37 °F (2014)
Min Temperature 10 °F 22 °F 28 °F (2014)
Degree Days  
Heating Degree Days 42    
Moisture  
Dew Point 13 °F    
Average Humidity 61    
Maximum Humidity 86    
Minimum Humidity 51    
Precipitation  
Precipitation 0.00 in - - ()
Sea Level Pressure  
Sea Level Pressure 30.11 in    
Wind  
Wind Speed 15 mph (West)    
Max Wind Speed 25 mph    
Max Gust Speed 31 mph    
Visibility 9 miles    
Events Snow    
Averages and records for this station are not official NWS values.
T = Trace of Precipitation, MM = Missing Value Source: NWS Daily Summary

Daily Weather History Graph

Daily Weather History Graph

Search for Another Location

Airport:

Trip Planner

Search our weather history database for the weather conditions in past years. The results will help you decide how hot, cold, wet, or windy it might be!

Date:

Astronomy

Jan. 31, 2013 Rise Set
Actual Time 7:09 AM CST 5:23 PM CST
Civil Twilight 6:40 AM CST 5:51 PM CST
Nautical Twilight 6:09 AM CST 6:23 PM CST
Astronomical Twilight 5:37 AM CST 6:54 PM CST
Moon 10:21 PM CST (1/31) 9:12 AM CST (1/31)
Length of Visible Light 11h 10m
Length of Day
10h 14m
Waning Gibbous, 79% of the Moon is Illuminated
Jan 31
Waning Gibbous
Feb 3
Last Quarter
Feb 10
New
Feb 17
First Quarter
Feb 25
Full

Hourly Weather History & Observations

Time (CST) Temp. Windchill Dew Point Humidity Pressure Visibility Wind Dir Wind Speed Gust Speed Precip Events Conditions
12:54 AM 28.0 °F 15.3 °F 14.0 °F 56% 29.96 in 10.0 mi West 18.4 mph 25.3 mph N/A   Overcast
1:54 AM 27.0 °F 16.7 °F 16.0 °F 63% 29.98 in 10.0 mi West 11.5 mph - N/A   Overcast
2:20 AM 26.6 °F 16.2 °F 17.6 °F 69% 29.95 in 10.0 mi West 11.5 mph - N/A   Overcast
2:54 AM 28.0 °F 18.1 °F 16.0 °F 61% 29.98 in 10.0 mi West 11.5 mph 24.2 mph N/A   Overcast
3:03 AM 28.4 °F 17.0 °F 15.8 °F 59% 29.95 in 10.0 mi West 15.0 mph 24.2 mph N/A   Overcast
3:54 AM 27.0 °F 16.7 °F 16.0 °F 63% 29.97 in 10.0 mi West 11.5 mph 19.6 mph N/A   Overcast
4:54 AM 27.0 °F 18.0 °F 17.1 °F 66% 29.97 in 10.0 mi West 9.2 mph - N/A   Overcast
5:54 AM 27.0 °F 15.6 °F 15.1 °F 61% 29.99 in 10.0 mi WSW 13.8 mph - N/A   Overcast
6:54 AM 27.0 °F 16.1 °F 16.0 °F 63% 30.01 in 10.0 mi WSW 12.7 mph - N/A   Overcast
7:54 AM 27.0 °F 16.1 °F 16.0 °F 63% 30.02 in 10.0 mi WSW 12.7 mph - N/A   Overcast
8:54 AM 28.0 °F 18.1 °F 17.1 °F 63% 30.04 in 10.0 mi WSW 11.5 mph - N/A   Overcast
9:54 AM 28.9 °F 17.7 °F 17.1 °F 61% 30.06 in 10.0 mi WSW 15.0 mph 21.9 mph N/A   Overcast
10:54 AM 30.9 °F 20.2 °F 19.0 °F 61% 30.06 in 10.0 mi West 15.0 mph 21.9 mph N/A   Overcast
11:54 AM 32.0 °F 22.1 °F 19.0 °F 59% 30.06 in 10.0 mi West 13.8 mph - N/A   Overcast
12:54 PM 33.1 °F 24.4 °F 19.0 °F 56% 30.03 in 10.0 mi West 11.5 mph 23.0 mph N/A   Overcast
1:09 PM 33.8 °F 22.8 °F 19.4 °F 56% 30.01 in 3.0 mi WNW 18.4 mph 24.2 mph 0.00 in Snow Snow
2:11 PM 30.2 °F 20.2 °F 24.8 °F 80% 30.04 in 0.8 mi West 12.7 mph - 0.00 in Snow Light Snow
2:41 PM 28.4 °F 20.4 °F 24.8 °F 86% 30.05 in 3.0 mi West 8.1 mph - 0.00 in Snow Light Snow
2:54 PM 30.0 °F 16.9 °F 18.0 °F 61% 30.08 in 3.0 mi West 21.9 mph 31.1 mph 0.00 in   Haze
3:54 PM 27.0 °F 12.5 °F 14.0 °F 58% 30.13 in 10.0 mi NW 23.0 mph 31.1 mph N/A   Mostly Cloudy
4:54 PM 21.9 °F 5.1 °F 9.0 °F 58% 30.20 in 10.0 mi WNW 25.3 mph 31.1 mph N/A   Mostly Cloudy
5:54 PM 19.0 °F 2.0 °F 5.0 °F 54% 30.24 in 10.0 mi WNW 23.0 mph 27.6 mph N/A   Scattered Clouds
6:54 PM 18.0 °F 0.9 °F 5.0 °F 57% 30.27 in 10.0 mi WNW 21.9 mph 27.6 mph N/A   Scattered Clouds
7:54 PM 17.1 °F 1.5 °F 5.0 °F 59% 30.31 in 10.0 mi WNW 17.3 mph 28.8 mph N/A   Overcast
8:54 PM 15.1 °F -3.3 °F -0.0 °F 51% 30.35 in 10.0 mi WNW 23.0 mph 29.9 mph N/A   Scattered Clouds
9:54 PM 14.0 °F -3.0 °F -0.0 °F 54% 30.40 in 10.0 mi WNW 18.4 mph 27.6 mph N/A   Clear
10:54 PM 12.9 °F -3.9 °F -0.9 °F 54% 30.43 in 10.0 mi WNW 17.3 mph 25.3 mph N/A   Clear
11:54 PM 10.9 °F -6.5 °F -2.9 °F 54% 30.44 in 10.0 mi WNW 17.3 mph - N/A   Clear